This is the latest recevied weather packets stored in our database for station/object W0VI. If no packets are shown the sender has not sent any weather packets the latest 10 day(s).
| Time | Temp. | Humidity | Pressure | Rain* | Wind** | Luminosity | Snow |
|---|---|---|---|---|---|---|---|
| 1777912853 | 15.56° C | 45% | 999 hPa | 0 mm | - | 891 W/m² | - |
| 1777912549 | 14.44° C | 49% | 999.1 hPa | 0 mm | - | 428 W/m² | - |
| 1777912245 | 15° C | 49% | 998.9 hPa | 0 mm | - | 450 W/m² | - |
| 1777911942 | 14.44° C | 49% | 998.4 hPa | 0 mm | - | 304 W/m² | - |
| 1777911638 | 15° C | 49% | 999.1 hPa | 0 mm | - | 317 W/m² | - |
| 1777911334 | 15° C | 49% | 998.8 hPa | 0 mm | - | 225 W/m² | - |
| 1777911032 | 14.44° C | 50% | 999 hPa | 0 mm | - | 247 W/m² | - |
| 1777910729 | 15° C | 50% | 999 hPa | 0 mm | - | 282 W/m² | - |
| 1777910426 | 15° C | 48% | 998.7 hPa | 0 mm | - | 320 W/m² | - |
| 1777910122 | 15° C | 48% | 998.7 hPa | 0 mm | - | 835 W/m² | - |
| 1777909820 | 15° C | 45% | 998.8 hPa | 0 mm | - | 676 W/m² | - |
| 1777909516 | 15° C | 44% | 998.8 hPa | 0 mm | - | 386 W/m² | - |
| 1777909214 | 15.56° C | 45% | 998.8 hPa | 0 mm | - | 806 W/m² | - |
| 1777908912 | 15° C | 45% | 998.4 hPa | 0 mm | - | 753 W/m² | - |
| 1777908609 | 15° C | 46% | 998.4 hPa | 0 mm | - | 349 W/m² | - |
| 1777908305 | 15° C | 44% | 998.4 hPa | 0 mm | - | 638 W/m² | - |
| 1777908001 | 15° C | 45% | 998.5 hPa | 0 mm | - | 622 W/m² | - |
| 1777907697 | 15° C | 45% | 998.5 hPa | 0 mm | - | 285 W/m² | - |
| 1777907392 | 15° C | 45% | 998.1 hPa | 0 mm | - | 538 W/m² | - |
| 1777907089 | 15° C | 45% | 998.4 hPa | 0 mm | - | 566 W/m² | - |
| 1777906787 | 15° C | 45% | 998.4 hPa | 0 mm | - | 557 W/m² | - |
| 1777906484 | 14.44° C | 46% | 998.4 hPa | 0 mm | - | 507 W/m² | - |
| 1777906180 | 14.44° C | 47% | 998.3 hPa | 0 mm | - | 491 W/m² | - |
| 1777905877 | 13.89° C | 47% | 998.5 hPa | 0 mm | - | 386 W/m² | - |
| 1777905574 | 14.44° C | 46% | 998.4 hPa | 0 mm | - | 183 W/m² | - |
* Rain latest hour (hover to see other rain measurements)
** Current wind speed in m/s (hover to see current wind gust speed)